EW1937 Weather Reports


time (UTC)temp
F
wind
direction
speed
knots
gust
knots
rain 1hr
in
rain 24hr
in
rain mn
in
humidity
%
barometer
mb
20260503013017 65 116 0.0 0.0 0.00 0.00 0.00 35 909.6
20260503011526 70 286 0.0 0.0 0.00 0.00 0.00 31 909.7
20260503010104 66 254 0.0 0.0 0.00 0.00 0.00 34 909.8
20260503004602 67 91 0.0 0.0 0.00 0.00 0.00 35 909.9
20260503003102 65 80 0.0 0.0 0.00 0.00 0.00 35 910.0
20260503001602 65 42 0.0 0.0 0.00 0.00 0.00 34 910.2
20260503000053 66 11 0.0 0.0 0.00 0.00 0.00 34 910.2
20260502234555 66 45 0.0 0.0 0.00 0.00 0.00 35 910.3
20260502233051 66 49 0.0 0.0 0.00 0.00 0.00 34 910.4
20260502231553 66 44 0.0 0.0 0.00 0.00 0.00 34 910.5
20260502230037 65 30 0.0 0.0 0.00 0.00 0.00 34 910.6
20260502224535 64 318 0.0 0.0 0.00 0.00 0.00 36 910.9
20260502223033 65 321 0.0 0.0 0.00 0.00 0.00 35 911.1
20260502221533 67 46 0.0 0.0 0.00 0.00 0.00 33 911.2
20260502220032 64 304 0.0 0.0 0.00 0.00 0.00 35 911.5
20260502214526 64 321 0.0 0.0 0.00 0.00 0.00 35 911.7
20260502213030 65 316 0.0 0.0 0.00 0.00 0.00 33 911.9
20260502211524 66 340 0.0 0.0 0.00 0.00 0.00 33 911.9
20260502210004 66 46 0.0 0.0 0.00 0.00 0.00 33 912.1
20260502204501 65 284 0.0 0.0 0.00 0.00 0.00 34 912.1
20260502203102 65 56 0.0 0.0 0.00 0.00 0.00 33 912.4
20260502201551 64 37 0.0 0.0 0.00 0.00 0.00 33 912.5
20260502200048 64 46 0.0 0.0 0.00 0.00 0.00 34 912.6
20260502194552 63 46 0.0 0.0 0.00 0.00 0.00 33 912.9
20260502193033 62 338 0.0 0.0 0.00 0.00 0.00 37 913.0
20260502191537 61 269 0.0 0.0 0.00 0.00 0.00 41 913.2
20260502190028 60 57 0.0 0.0 0.00 0.00 0.00 40 913.4
20260502184535 60 316 0.0 0.0 0.00 0.00 0.00 40 913.5
20260502183026 60 11 0.0 0.0 0.00 0.00 0.00 42 913.5
20260502181531 60 337 0.0 0.0 0.00 0.00 0.00 44 913.6
20260502163025 59 339 0.0 0.0 0.00 0.00 0.00 47 913.6
20260502161511 59 328 0.0 0.0 0.00 0.00 0.00 46 913.5
20260502151556 57 322 0.0 0.0 0.00 0.00 0.00 50 913.6
20260502123040 42 314 0.0 0.0 0.00 0.00 0.00 72 912.7
20260502121539 42 307 0.0 0.0 0.00 0.00 0.00 71 912.5
20260502114512 45 323 0.0 0.0 0.00 0.00 0.00 63 912.4
20260502113011 48 349 0.0 0.0 0.00 0.00 0.00 58 912.3
20260502111554 48 44 0.0 0.0 0.00 0.00 0.00 57 912.0
20260502110051 49 45 0.0 0.0 0.00 0.00 0.00 55 911.7
20260502104548 49 51 0.0 0.0 0.00 0.00 0.00 56 911.5
20260502103047 46 49 0.0 0.0 0.00 0.00 0.00 61 911.4
20260502101545 45 36 0.0 0.0 0.00 0.00 0.00 61 911.2
20260502071521 41 318 0.0 0.0 0.00 0.00 0.00 69 909.3
20260502070020 42 303 0.0 0.0 0.00 0.00 0.00 68 909.2
20260502064501 42 319 0.0 0.0 0.00 0.00 0.00 68 909.3
20260502063002 42 319 0.0 0.0 0.00 0.00 0.00 68 909.3
20260502061548 42 290 0.0 0.0 0.00 0.00 0.00 69 909.3
20260502060053 41 293 0.0 0.0 0.00 0.00 0.00 70 909.2
20260502054553 41 319 0.0 0.0 0.00 0.00 0.00 70 909.1
20260502053048 41 314 0.0 0.0 0.00 0.00 0.00 68 909.2
20260502051543 42 323 0.0 0.0 0.00 0.00 0.00 65 909.2
20260502050043 42 308 0.0 0.0 0.00 0.00 0.00 63 909.1
20260502044544 44 295 0.0 0.0 0.00 0.00 0.00 59 909.1
20260502043041 46 326 0.0 0.0 0.00 0.00 0.00 56 909.0
20260502041522 49 283 0.0 0.0 0.00 0.00 0.00 50 908.8
20260502040018 53 31 0.0 0.0 0.00 0.00 0.00 41 908.8
20260502034530 53 320 0.0 0.0 0.00 0.00 0.00 40 908.8
20260502033016 55 46 0.0 0.0 0.00 0.00 0.00 35 908.6
20260502031513 54 52 0.0 0.0 0.00 0.00 0.00 35 908.5
20260502030009 57 58 0.0 0.0 0.00 0.00 0.00 32 908.3
20260502024511 61 46 0.0 0.0 0.00 0.00 0.00 27 908.2
20260502023004 62 44 0.0 0.0 0.00 0.00 0.00 27 908.1
20260502021549 62 44 0.0 0.0 0.00 0.00 0.00 28 908.0
20260502020044 64 45 0.0 0.0 0.00 0.00 0.00 25 908.0
20260502014546 67 46 0.0 0.0 0.00 0.00 0.00 23 908.0